[[{"header":{"parameterUnit":"m.s-1","parameterCategory":1,"la1":30.2991,"la2":30.254,"lo1":-89.0895,"lo2":-89.0444,"dy":0.0017,"dx":0.0017,"nx":28,"ny":28,"refTime":"2024-03-29T03:00:00:Z","depth":0,"parameterNumber":2,"parameterNumberName":"U-component_of_WINDS"},"data":[0,0,0,0,0,0,0,0,0,0,0,0,0,0,0,0,0,0,0,0,0,0,0,0,0,0,0,0,0,0,0,0,0,0,0,0,0,0,0,0,0,0,0,0,0,0,0,0,0,0,0,0,0,0,0,0,0,0,-1.2479,-1.2479,0,-1.2502,-1.2503,-1.2503,-1.2508,-1.2508,-1.2508,-1.2508,-1.2531,-1.2532,-1.2533,0,0,0,0,0,0,0,0,0,0,0,0,0,-1.2438,-1.2438,-1.2479,-1.2479,-1.2479,-1.2502,-1.2503,-1.2503,-1.2508,-1.2508,-1.2508,-1.2508,-1.2531,-1.2532,-1.2533,0,0,0,0,0,0,0,0,0,0,0,0,0,-1.2458,-1.2439,-1.2479,-1.2485,-1.2486,-1.2502,-1.2503,-1.2503,-1.2508,-1.2508,-1.2508,-1.2507,-1.2531,-1.2532,-1.2533,-1.2545,0,0,-1.2537,-1.2537,0,0,0,0,0,0,0,0,-1.2457,-1.2459,-1.2484,-1.2484,-1.2485,-1.2502,-1.2497,-1.2517,-1.2508,-1.25,-1.2508,-1.2507,-1.2522,-1.2524,-1.2529,-1.2546,-1.2547,-1.2537,-1.2537,-1.2538,-1.2538,0,0,0,0,0,0,0,-1.2455,-1.2458,-1.2488,-1.2484,-1.2485,-1.2486,-1.2489,-1.2501,-1.2512,-1.25,-1.2501,-1.2504,-1.2522,-1.2527,-1.2529,-1.2548,-1.2537,-1.2538,-1.2538,-1.2539,-1.2576,-1.2576,0,0,0,0,0,0,-1.2453,-1.2457,-1.2487,-1.2489,-1.247,-1.2487,-1.249,-1.2497,-1.2512,-1.2514,-1.2504,-1.2504,-1.2526,-1.2528,-1.253,-1.2545,-1.2538,-1.2539,-1.254,-1.2576,-1.2576,-1.2577,0,0,0,0,0,0,-1.2452,-1.2455,-1.2486,-1.2473,-1.2477,-1.2488,-1.2496,-1.2498,-1.2503,-1.2514,-1.2516,-1.2507,-1.2525,-1.2528,-1.2541,-1.2546,-1.254,-1.2541,-1.2576,-1.2576,-1.2576,-1.2575,0,0,0,0,0,0,-1.2451,-1.2455,-1.246,-1.2473,-1.2478,-1.2498,-1.2496,-1.2498,-1.2505,-1.2505,-1.2518,-1.252,-1.2525,-1.254,-1.2543,-1.2547,-1.2542,-1.2575,-1.2576,-1.2576,-1.2575,-1.2575,-1.2576,0,0,0,0,0,-1.2449,-1.2459,-1.246,-1.2464,-1.2484,-1.2498,-1.2501,-1.2507,-1.2505,-1.251,-1.2517,-1.2519,-1.2545,-1.2541,-1.2544,-1.2549,-1.2575,-1.2576,-1.2576,-1.2574,-1.2575,-1.2576,0,0,0,0,0,0,-1.2446,-1.2461,-1.2463,-1.2477,-1.2486,-1.2499,-1.2505,-1.2508,-1.2518,-1.2517,-1.2525,-1.2528,-1.254,-1.2546,-1.2541,-1.2562,-1.256,-1.2561,-1.2557,-1.2558,-1.2559,-1.2557,-1.2543,0,0,0,0,0,-1.2447,-1.2457,-1.2469,-1.2481,-1.2485,-1.2494,-1.2501,-1.2505,-1.2515,-1.2518,-1.2527,-1.2536,-1.2546,-1.2552,-1.2562,-1.2576,-1.2578,-1.2581,-1.2581,-1.2582,-1.2583,-1.259,-1.2591,-1.2579,-1.2579,-1.2579,0,0,-1.2449,-1.2458,-1.2464,-1.248,-1.2488,-1.2498,-1.2498,-1.2508,-1.2515,-1.252,-1.2533,-1.2539,-1.255,-1.2563,-1.2569,-1.2568,-1.2587,-1.2583,-1.2583,-1.2584,-1.259,-1.2592,-1.2593,-1.2579,-1.2579,-1.2579,0,0,-1.2458,-1.2466,-1.2476,-1.2484,-1.2495,-1.2501,-1.2504,-1.2516,-1.252,-1.2533,-1.2537,-1.2545,-1.2563,-1.257,-1.2576,-1.2587,-1.2589,-1.259,-1.2593,-1.26,-1.2601,-1.2601,-1.2605,-1.2606,-1.2591,-1.2591,-1.2591,0,-1.2459,-1.2474,-1.2481,-1.2491,-1.2498,-1.2503,-1.2512,-1.252,-1.2534,-1.2538,-1.2537,-1.2559,-1.2566,-1.2581,-1.2583,-1.2588,-1.2591,-1.2589,-1.26,-1.2601,-1.2602,-1.2605,-1.2606,-1.2591,-1.2591,-1.2591,-1.2591,0,-1.2475,-1.2485,-1.2492,-1.2505,-1.2513,-1.2523,-1.2531,-1.2537,-1.2541,-1.2547,-1.2559,-1.2569,-1.258,-1.2584,-1.2588,-1.2599,-1.2598,-1.2598,-1.2597,-1.2603,-1.2606,-1.2607,-1.2591,-1.2591,-1.2591,-1.2591,0,0,-1.2483,-1.2499,-1.2502,-1.2507,-1.252,-1.2528,-1.2538,-1.255,-1.2555,-1.2564,-1.2573,-1.2587,-1.2587,-1.2594,-1.2598,-1.2604,-1.2612,-1.2604,-1.2604,-1.2604,-1.2624,-1.2623,-1.2625,-1.2613,-1.2613,-1.2614,-1.2623,0,-1.2493,-1.2511,-1.2517,-1.2532,-1.2541,-1.2545,-1.2554,-1.2562,-1.2568,-1.2577,-1.2583,-1.2593,-1.2593,-1.2597,-1.2603,-1.2609,-1.2615,-1.2609,-1.262,-1.2621,-1.2617,-1.2626,-1.2626,-1.2634,-1.2624,-1.2624,-1.2625,0,-1.2507,-1.2516,-1.2532,-1.2543,-1.2547,-1.2555,-1.2565,-1.2573,-1.2583,-1.2587,-1.2594,-1.2598,-1.2608,-1.2606,-1.262,-1.2615,-1.262,-1.2624,-1.2625,-1.2626,-1.2623,-1.2627,-1.2637,-1.2638,-1.2627,-1.2627,-1.2626,0,-1.251,-1.2527,-1.2538,-1.2543,-1.2556,-1.2561,-1.2567,-1.2577,-1.2583,-1.2592,-1.2596,-1.2606,-1.2612,-1.262,-1.2626,-1.2624,-1.2639,-1.2637,-1.2642,-1.2642,-1.2645,-1.2645,-1.2655,-1.2649,-1.2649,-1.2649,-1.2649,0,-1.252,-1.2529,-1.254,-1.2546,-1.2557,-1.2564,-1.2574,-1.258,-1.2588,-1.2596,-1.26,-1.2608,-1.2616,-1.2624,-1.2629,-1.2639,-1.2642,-1.2645,-1.2646,-1.2644,-1.2644,-1.2648,-1.2647,-1.2649,-1.2649,-1.2649,-1.2649,0,-1.2525,-1.2533,-1.2545,-1.2557,-1.256,-1.2567,-1.2577,-1.2583,-1.2589,-1.2599,-1.2602,-1.2611,-1.2621,-1.2628,-1.2641,-1.2644,-1.2655,-1.2656,-1.2652,-1.2652,-1.2656,-1.2656,-1.267,-1.2672,-1.2664,-1.2664,-1.2664,0,-1.2531,-1.2538,-1.2551,-1.2556,-1.2562,-1.2571,-1.2577,-1.2584,-1.259,-1.2602,-1.2607,-1.2617,-1.2626,-1.2641,-1.2649,-1.2659,-1.266,-1.2664,-1.2661,-1.2659,-1.2659,-1.2659,-1.2659,-1.2664,-1.2664,-1.2664,-1.2664,0,-1.2541,-1.2544,-1.2553,-1.2563,-1.257,-1.2578,-1.2586,-1.2591,-1.2599,-1.2606,-1.2616,-1.2623,-1.2636,-1.2646,-1.2656,-1.2662,-1.2664,-1.2665,-1.2667,-1.2665,-1.2662,-1.2663,-1.2652,-1.2665,-1.2665,-1.2665,-1.2665,-1.2665,-1.2546,-1.2553,-1.2562,-1.2571,-1.2578,-1.2586,-1.2592,-1.2599,-1.2608,-1.2619,-1.2622,-1.2633,-1.2642,-1.2656,-1.2662,-1.267,-1.2669,-1.2672,-1.2672,-1.2673,-1.2672,-1.2661,-1.2672,-1.2672,-1.2672,-1.2672,-1.2672,0,-1.2555,-1.2562,-1.257,-1.2581,-1.2589,-1.2591,-1.26,-1.2606,-1.2615,-1.2623,-1.2631,-1.2643,-1.2652,-1.2661,-1.267,-1.2675,-1.2677,-1.2678,-1.2677,-1.2678,-1.2672,-1.267,-1.2676,-1.2676,-1.2676,-1.2676,-1.2676,-1.2676,-1.2561,-1.2572,-1.2576,-1.259,-1.2596,-1.2606,-1.2611,-1.2618,-1.2624,-1.2637,-1.2644,-1.265,-1.2658,-1.2668,-1.2677,-1.2679,-1.2682,-1.2683,-1.2685,-1.2679,-1.2679,-1.2678,-1.2676,-1.2684,-1.2684,-1.2691,-1.2691,-1.2691]},{"header":{"parameterUnit":"m.s-1","parameterCategory":1,"la1":30.2991,"la2":30.254,"lo1":-89.0895,"lo2":-89.0444,"dy":0.0017,"dx":0.0017,"nx":28,"ny":28,"refTime":"2024-03-29T03:00:00:Z","depth":0,"parameterNumber":3,"parameterNumberName":"V-component_of_WINDS"},"data":[0,0,0,0,0,0,0,0,0,0,0,0,0,0,0,0,0,0,0,0,0,0,0,0,0,0,0,0,0,0,0,0,0,0,0,0,0,0,0,0,0,0,0,0,0,0,0,0,0,0,0,0,0,0,0,0,0,0,4.0676,4.0676,0,4.0722,4.0722,4.0723,4.068,4.0679,4.0677,4.0675,4.0719,4.0722,4.0724,0,0,0,0,0,0,0,0,0,0,0,0,0,4.0548,4.055,4.0676,4.0676,4.0677,4.0722,4.0722,4.0723,4.0681,4.0679,4.0676,4.0675,4.0718,4.0721,4.0725,0,0,0,0,0,0,0,0,0,0,0,0,0,4.0599,4.0551,4.0676,4.0661,4.066,4.0722,4.0722,4.0723,4.0681,4.0678,4.0676,4.0674,4.0717,4.0721,4.0725,4.0802,0,0,4.0738,4.074,0,0,0,0,0,0,0,0,4.0597,4.0604,4.0663,4.0662,4.0662,4.0693,4.0693,4.0749,4.0682,4.0673,4.0675,4.0672,4.0712,4.0717,4.0731,4.0804,4.0806,4.0738,4.0741,4.0742,4.0744,0,0,0,0,0,0,0,4.0593,4.0602,4.0694,4.0664,4.0663,4.0651,4.0656,4.0704,4.0706,4.0674,4.0671,4.0677,4.0711,4.0727,4.0731,4.0806,4.0738,4.0742,4.0744,4.0746,4.0945,4.0948,0,0,0,0,0,0,4.0591,4.0599,4.0692,4.0695,4.0622,4.0656,4.0661,4.0685,4.0706,4.0706,4.0679,4.0675,4.0721,4.0727,4.0733,4.0824,4.0742,4.0746,4.0749,4.0942,4.0946,4.0949,0,0,0,0,0,0,4.0589,4.06,4.0691,4.0647,4.0657,4.0661,4.0689,4.0688,4.0703,4.071,4.071,4.0695,4.0719,4.0727,4.0785,4.0825,4.0748,4.0752,4.0939,4.0943,4.0947,4.1008,0,0,0,0,0,0,4.0585,4.0599,4.063,4.0648,4.066,4.0744,4.0691,4.069,4.0711,4.0706,4.0724,4.0725,4.0718,4.0779,4.0789,4.083,4.0755,4.0935,4.0941,4.0946,4.1003,4.1014,4.1024,0,0,0,0,0,4.0581,4.0644,4.0631,4.0643,4.0697,4.0746,4.0753,4.0744,4.0714,4.0744,4.0748,4.0725,4.0819,4.0786,4.0797,4.0839,4.0933,4.0939,4.0945,4.0998,4.1012,4.1023,0,0,0,0,0,0,4.0629,4.0646,4.0632,4.0703,4.0724,4.0739,4.0776,4.0759,4.0787,4.0781,4.0768,4.0773,4.0835,4.0842,4.0805,4.0914,4.0871,4.088,4.0907,4.092,4.0931,4.0928,4.0759,0,0,0,0,0,4.0648,4.0688,4.0699,4.0761,4.0772,4.0773,4.0793,4.0785,4.0805,4.0813,4.0822,4.0841,4.0875,4.0898,4.093,4.1003,4.1007,4.1037,4.1048,4.1057,4.1065,4.1104,4.1118,4.097,4.0969,4.0969,0,0,4.0688,4.0702,4.0727,4.0771,4.0786,4.0826,4.078,4.0824,4.0853,4.0819,4.0876,4.0883,4.0903,4.097,4.0999,4.0978,4.1106,4.1065,4.1071,4.1075,4.1112,4.1126,4.1139,4.0974,4.0973,4.0972,0,0,4.0781,4.0795,4.0848,4.0865,4.0888,4.0888,4.0901,4.0919,4.0922,4.0979,4.0954,4.0988,4.1047,4.1063,4.1079,4.1178,4.1158,4.1189,4.1244,4.1283,4.1295,4.1305,4.1341,4.1354,4.1196,4.1197,4.1197,0,4.0826,4.0887,4.0877,4.0924,4.0944,4.0916,4.0969,4.0985,4.1017,4.1031,4.1007,4.1081,4.1093,4.1163,4.1187,4.1201,4.1215,4.1187,4.1294,4.1304,4.1314,4.1348,4.1361,4.12,4.12,4.12,4.1199,0,4.0942,4.0985,4.1025,4.1058,4.1082,4.1132,4.1129,4.1154,4.1144,4.1146,4.1203,4.1217,4.1251,4.1267,4.1256,4.1336,4.1322,4.1296,4.1253,4.1332,4.1363,4.1376,4.1206,4.1204,4.1203,4.1202,0,0,4.1067,4.1095,4.111,4.1125,4.1149,4.1181,4.1229,4.1264,4.1286,4.1309,4.1349,4.1399,4.1376,4.1394,4.1385,4.1419,4.1497,4.1389,4.1389,4.1409,4.1586,4.1606,4.1621,4.1483,4.1486,4.1488,4.1584,0,4.1162,4.1247,4.1239,4.1319,4.1358,4.1332,4.1374,4.1393,4.1396,4.1428,4.1431,4.1468,4.1433,4.1444,4.1477,4.1481,4.1533,4.1474,4.152,4.1522,4.1517,4.1638,4.1659,4.1749,4.1597,4.1599,4.16,0,4.1283,4.1312,4.1397,4.1415,4.1431,4.1469,4.15,4.1532,4.1552,4.1552,4.1573,4.1558,4.1605,4.156,4.1625,4.1585,4.1603,4.1608,4.1612,4.1616,4.1566,4.1646,4.1778,4.1792,4.1619,4.1618,4.1617,0,4.1367,4.1426,4.1485,4.1498,4.1521,4.1549,4.1559,4.1577,4.1599,4.1625,4.1639,4.1671,4.1688,4.1712,4.1706,4.1674,4.1773,4.1727,4.1774,4.1774,4.1796,4.1795,4.1934,4.1807,4.1806,4.1806,4.1806,0,4.1473,4.1526,4.1523,4.1559,4.1617,4.1608,4.1665,4.1672,4.1688,4.1725,4.1703,4.1737,4.1727,4.176,4.1755,4.181,4.1817,4.1818,4.1817,4.1821,4.1821,4.1833,4.1827,4.181,4.1809,4.1808,4.1808,0,4.1577,4.1577,4.1639,4.1656,4.1662,4.1704,4.1718,4.1751,4.1752,4.1799,4.1809,4.1811,4.1849,4.1845,4.1887,4.1884,4.1952,4.1942,4.1946,4.1944,4.1991,4.1987,4.2143,4.2163,4.2023,4.2024,4.2025,0,4.1646,4.1686,4.1708,4.1731,4.1744,4.1782,4.1804,4.1795,4.1819,4.1846,4.1876,4.1912,4.1941,4.2003,4.2008,4.204,4.2031,4.2084,4.2036,4.2039,4.2033,4.2031,4.2035,4.2093,4.2095,4.2096,4.2097,0,4.1767,4.1766,4.1799,4.1833,4.186,4.1886,4.191,4.1929,4.1923,4.1951,4.1991,4.2013,4.2057,4.2093,4.2124,4.2133,4.2115,4.2112,4.2125,4.213,4.2131,4.2132,4.1973,4.2109,4.2108,4.2107,4.2106,4.2106,4.1856,4.1891,4.1912,4.195,4.1967,4.199,4.2022,4.2028,4.2061,4.2098,4.209,4.2135,4.2153,4.2193,4.2206,4.224,4.222,4.2238,4.2243,4.2248,4.2254,4.2125,4.2245,4.2245,4.2244,4.2244,4.2244,0,4.1978,4.199,4.2025,4.2059,4.2089,4.207,4.2094,4.212,4.2161,4.218,4.2209,4.2255,4.229,4.2298,4.2331,4.2357,4.2349,4.2366,4.2365,4.2367,4.2269,4.2255,4.2372,4.2372,4.2372,4.2372,4.2372,4.2372,4.2045,4.2103,4.2104,4.217,4.2181,4.2226,4.2242,4.2262,4.2278,4.233,4.236,4.2365,4.238,4.2414,4.2445,4.2446,4.246,4.2481,4.2479,4.2387,4.2374,4.2362,4.2349,4.2483,4.2484,4.2574,4.2575,4.2576]}]]